Location: Piotrkow Trybunalski
(51.4000°N, 19.6830°E)
Time: 05:17:12
(UTC+01:00)

Transit 2A - All Passes

Search period start: 30 January 2023 00:00
Search period end: 09 February 2023 00:00
Orbit: 594 x 962 km, 66.7° (Epoch: 29 January)

Date Brightness Start Highest point End Pass type
(mag) Time Alt. Az. Time Alt. Az. Time Alt. Az.
30 Jan - 01:32:36 10° NW 01:38:28 60° NE 01:44:42 10° SE night (unlit)
30 Jan - 03:16:04 10° NW 03:21:33 37° WSW 03:27:15 10° S night (unlit)
30 Jan - 16:21:34 10° ESE 16:23:17 12° E 16:25:03 10° E daylight
30 Jan - 18:00:27 10° SSW 18:05:16 69° ESE 18:10:42 10° NE visible
30 Jan - 19:44:23 10° W 19:48:58 32° NNW 19:53:59 10° NNE visible
30 Jan - 21:30:17 10° NW 21:33:56 18° N 21:37:47 10° NE visible
30 Jan - 23:14:57 10° NNW 23:19:15 21° NNE 23:23:47 10° ENE night (unlit)
31 Jan - 00:58:07 10° NNW 01:03:50 48° NE 01:09:54 10° ESE night (unlit)
31 Jan - 02:41:23 10° NW 02:47:10 49° WSW 02:53:12 10° S night (unlit)
31 Jan - 17:26:11 10° SSW 17:30:52 49° ESE 17:36:05 10° NE visible
31 Jan - 19:09:29 10° WSW 19:14:13 39° NW 19:19:29 10° NNE visible
31 Jan - 20:55:13 10° WNW 20:59:00 19° NNW 21:03:02 10° NNE visible
31 Jan - 22:40:19 10° NNW 22:44:21 19° NNE 22:48:37 10° ENE visible
01 Feb - 00:23:38 10° NNW 00:29:08 39° NE 00:34:59 10° ESE night (unlit)
01 Feb - 02:06:46 10° NW 02:12:43 64° WSW 02:18:59 10° SSE night (unlit)
01 Feb - 03:51:52 10° WNW 03:54:59 14° WSW 03:58:10 10° SW night (unlit)
01 Feb - 16:52:06 10° S 16:56:31 35° ESE 17:01:22 10° NE daylight
01 Feb - 18:34:40 10° WSW 18:39:32 50° NW 18:44:58 10° NNE visible
01 Feb - 20:20:07 10° WNW 20:24:06 21° NNW 20:28:21 10° NNE visible
01 Feb - 22:05:35 10° NW 22:09:25 18° N 22:13:27 10° NE visible
01 Feb - 23:49:08 10° NNW 23:54:24 33° NNE 23:59:58 10° E night (unlit)
02 Feb - 01:32:13 10° NW 01:38:15 83° SW 01:44:36 10° SSE night (unlit)
02 Feb - 03:16:30 10° WNW 03:20:46 20° WSW 03:25:09 10° SSW night (unlit)
02 Feb - 16:18:15 10° SSE 16:22:13 25° ESE 16:26:33 10° NE daylight
02 Feb - 17:59:58 10° SW 18:04:55 65° NW 18:10:28 10° NE visible
02 Feb - 19:45:02 10° WNW 19:49:13 23° NNW 19:53:45 10° NNE visible
02 Feb - 21:30:47 10° NW 21:34:29 17° N 21:38:23 10° NE visible
02 Feb - 23:14:38 10° NNW 23:19:37 28° NNE 23:24:53 10° E night (unlit)
03 Feb - 00:57:41 10° NW 01:03:42 78° NE 01:10:03 10° SE night (unlit)
03 Feb - 02:41:30 10° NW 02:46:30 27° WSW 02:51:39 10° SSW night (unlit)
03 Feb - 15:44:42 10° SSE 15:48:00 18° ESE 15:51:30 10° ENE daylight
03 Feb - 17:25:24 10° SW 17:30:21 86° NW 17:35:56 10° NE visible
03 Feb - 19:09:58 10° W 19:14:22 27° NNW 19:19:11 10° NNE visible
03 Feb - 20:55:52 10° NW 20:59:31 17° N 21:03:23 10° NE visible
03 Feb - 22:40:06 10° NNW 22:44:46 24° NNE 22:49:43 10° ENE visible
04 Feb - 00:23:11 10° NW 00:29:07 62° NE 00:35:23 10° SE night (unlit)
04 Feb - 02:06:41 10° NW 02:12:10 36° WSW 02:17:51 10° S night (unlit)
04 Feb - 15:11:45 10° SE 15:13:49 13° ESE 15:15:58 10° ENE daylight
04 Feb - 16:50:57 10° SSW 16:55:51 71° ESE 17:01:21 10° NE daylight
04 Feb - 18:34:58 10° W 18:39:35 32° NNW 18:44:39 10° NNE visible
04 Feb - 20:20:52 10° NW 20:24:34 18° N 20:28:30 10° NE visible
04 Feb - 22:05:30 10° NNW 22:09:55 22° NNE 22:14:33 10° ENE visible
04 Feb - 23:48:41 10° NNW 23:54:29 49° NE 00:00:35 10° ESE night (unlit)
05 Feb - 01:32:00 10° NW 01:37:47 47° WSW 01:43:49 10° S night (unlit)
05 Feb - 16:16:40 10° SSW 16:21:25 52° ESE 16:26:44 10° NE daylight
05 Feb - 18:00:03 10° WSW 18:04:50 39° NW 18:10:08 10° NNE visible
05 Feb - 19:45:48 10° WNW 19:49:38 19° NNW 19:53:44 10° NNE visible
05 Feb - 21:30:51 10° NNW 21:35:00 20° NNE 21:39:21 10° ENE visible
05 Feb - 23:14:11 10° NNW 23:19:47 40° NE 23:25:41 10° ESE visible
06 Feb - 00:57:22 10° NW 01:03:21 62° WSW 01:09:36 10° SSE night (unlit)
06 Feb - 02:42:35 10° WNW 02:45:34 14° WSW 02:48:35 10° SW night (unlit)
06 Feb - 15:42:33 10° S 15:47:03 37° ESE 15:52:02 10° NE daylight
06 Feb - 17:25:13 10° WSW 17:30:07 49° NW 17:35:37 10° NNE visible
06 Feb - 19:10:41 10° WNW 19:14:43 21° NNW 19:19:02 10° NNE visible
06 Feb - 20:56:08 10° NW 21:00:04 18° N 21:04:12 10° NE visible
06 Feb - 22:39:41 10° NNW 22:45:02 34° NNE 22:50:40 10° E visible
07 Feb - 00:22:47 10° NW 00:28:51 81° SW 00:35:13 10° SSE night (unlit)
07 Feb - 02:07:09 10° WNW 02:11:21 19° WSW 02:15:38 10° SSW night (unlit)
07 Feb - 15:08:39 10° SSE 15:12:45 27° ESE 15:17:13 10° NE daylight
07 Feb - 16:50:29 10° SW 16:55:29 63° NW 17:01:05 10° NE daylight
07 Feb - 18:35:35 10° WNW 18:39:49 23° NNW 18:44:24 10° NNE visible
07 Feb - 20:21:19 10° NW 20:25:07 18° N 20:29:06 10° NE visible
07 Feb - 22:05:10 10° NNW 22:10:14 29° NNE 22:15:35 10° E visible
07 Feb - 23:48:15 10° NW 23:54:19 80° NE 00:00:41 10° SE night (unlit)
08 Feb - 01:32:07 10° NW 01:37:04 26° WSW 01:42:10 10° SSW night (unlit)
08 Feb - 14:35:02 10° SSE 14:38:30 19° ESE 14:42:13 10° ENE daylight
08 Feb - 16:15:53 10° SW 16:20:54 83° NW 16:26:33 10° NE daylight
08 Feb - 18:00:31 10° W 18:04:58 27° NNW 18:09:49 10° NNE visible
08 Feb - 19:46:24 10° NW 19:50:09 18° N 19:54:05 10° NE visible
08 Feb - 21:30:37 10° NNW 21:35:24 25° NNE 21:40:26 10° ENE visible
08 Feb - 23:13:43 10° NW 23:19:43 64° NE 23:26:01 10° SE visible
